Hourly Weather Holstovka

Today, 11 April, Sunday

Time Temperature Precipitation Wind Pressure Humidity
00:00 +2°C° 0 mm 3 mps 740 mmHg 99%
01:00 +2°C° 0 mm 3 mps 740 mmHg 99%
02:00 +2°C° 0 mm 3 mps 740 mmHg 99%
03:00 +2°C° 0 mm 3 mps 741 mmHg 99%
04:00 +2°C° 0 mm 3 mps 741 mmHg 99%
05:00 +2°C° 0 mm 3 mps 741 mmHg 99%
06:00 +2°C° 0 mm 3 mps 742 mmHg 99%
07:00 +2°C° 0 mm 3 mps 742 mmHg 99%
08:00 +3°C° 0 mm 3 mps 743 mmHg 98%
09:00 +4°C° 0 mm 3 mps 743 mmHg 98%
10:00 +5°C° 0 mm 3 mps 743 mmHg 97%
11:00 +7°C° 0 mm 3 mps 744 mmHg 96%
12:00 +8°C° 0 mm 3 mps 744 mmHg 95%
13:00 +8°C° 0 mm 3 mps 744 mmHg 93%
14:00 +7°C° 0 mm 4 mps 744 mmHg 92%
15:00 +8°C° 0 mm 4 mps 745 mmHg 91%
16:00 +7°C° 0 mm 4 mps 745 mmHg 92%
17:00 +7°C° 0 mm 4 mps 745 mmHg 94%
18:00 +6°C° 0 mm 4 mps 745 mmHg 96%
19:00 +6°C° 0 mm 4 mps 745 mmHg 95%
20:00 +6°C° 0 mm 4 mps 745 mmHg 95%
21:00 +5°C° 0 mm 4 mps 745 mmHg 94%
22:00 +5°C° 0 mm 3 mps 746 mmHg 95%
23:00 +5°C° 0 mm 3 mps 746 mmHg 95%

Tomorrow, 12 April, Monday

Time Temperature Precipitation Wind Pressure Humidity
00:00 +5°C° 0 mm 3 mps 746 mmHg 95%
01:00 +5°C° 0 mm 3 mps 746 mmHg 95%
02:00 +4°C° 0 mm 3 mps 746 mmHg 95%
03:00 +4°C° 0 mm 3 mps 747 mmHg 96%
04:00 +4°C° 0 mm 3 mps 747 mmHg 96%
05:00 +4°C° 0 mm 3 mps 747 mmHg 96%
06:00 +4°C° 0 mm 3 mps 747 mmHg 96%
07:00 +7°C° 0 mm 3 mps 747 mmHg 89%
08:00 +9°C° 0 mm 3 mps 748 mmHg 82%
09:00 +11°C° 0 mm 4 mps 748 mmHg 74%
10:00 +13°C° 0 mm 4 mps 748 mmHg 67%
11:00 +15°C° 0 mm 4 mps 748 mmHg 60%
12:00 +17°C° 0 mm 4 mps 748 mmHg 53%
13:00 +18°C° 0 mm 4 mps 748 mmHg 51%
14:00 +18°C° 0 mm 4 mps 748 mmHg 49%
15:00 +19°C° 0 mm 4 mps 748 mmHg 47%
16:00 +17°C° 0 mm 4 mps 748 mmHg 54%
17:00 +16°C° 0 mm 3 mps 748 mmHg 60%
18:00 +14°C° 0 mm 3 mps 748 mmHg 66%
19:00 +14°C° 0 mm 2 mps 748 mmHg 69%
20:00 +13°C° 0 mm 2 mps 748 mmHg 72%
21:00 +12°C° 0 mm 2 mps 748 mmHg 75%
22:00 +10°C° 0 mm 2 mps 748 mmHg 77%
23:00 +10°C° 0 mm 2 mps 748 mmHg 78%

Day after tomorrow, 13 April, Tuesday

Time Temperature Precipitation Wind Pressure Humidity
00:00 +9°C° 0 mm 2 mps 748 mmHg 80%
01:00 +9°C° 0 mm 2 mps 748 mmHg 81%
02:00 +8°C° 0 mm 2 mps 748 mmHg 82%
03:00 +8°C° 0 mm 2 mps 749 mmHg 83%
04:00 +8°C° 0 mm 2 mps 749 mmHg 82%
05:00 +7°C° 0 mm 2 mps 749 mmHg 81%
06:00 +7°C° 0 mm 2 mps 749 mmHg 79%
07:00 +9°C° 0 mm 2 mps 749 mmHg 70%
08:00 +11°C° 0 mm 3 mps 749 mmHg 60%
09:00 +12°C° 0 mm 3 mps 749 mmHg 50%
10:00 +13°C° 0 mm 4 mps 749 mmHg 45%
11:00 +15°C° 0 mm 4 mps 749 mmHg 41%
12:00 +17°C° 0 mm 4 mps 749 mmHg 36%
13:00 +17°C° 0 mm 4 mps 748 mmHg 35%
14:00 +17°C° 0 mm 4 mps 748 mmHg 35%
15:00 +18°C° 0 mm 4 mps 748 mmHg 34%
16:00 +16°C° 0 mm 3 mps 748 mmHg 40%
17:00 +14°C° 0 mm 3 mps 747 mmHg 46%
18:00 +14°C° 0 mm 2 mps 747 mmHg 52%
19:00 +13°C° 0 mm 2 mps 747 mmHg 55%
20:00 +12°C° 0 mm 2 mps 747 mmHg 59%
21:00 +10°C° 0 mm 2 mps 747 mmHg 62%
22:00 +9°C° 0 mm 2 mps 747 mmHg 63%
23:00 +8°C° 0 mm 2 mps 747 mmHg 64%

14 April, Wednesday

Time Temperature Precipitation Wind Pressure Humidity
00:00 +8°C° 0 mm 2 mps 747 mmHg 65%
01:00 +7°C° 0 mm 2 mps 747 mmHg 65%
02:00 +7°C° 0 mm 2 mps 746 mmHg 66%
03:00 +6°C° 0 mm 2 mps 746 mmHg 66%
04:00 +6°C° 0 mm 2 mps 746 mmHg 66%
05:00 +6°C° 0 mm 2 mps 746 mmHg 67%
06:00 +6°C° 0 mm 2 mps 746 mmHg 67%
07:00 +8°C° 0 mm 2 mps 746 mmHg 61%
08:00 +10°C° 0 mm 3 mps 746 mmHg 55%
09:00 +12°C° 0 mm 4 mps 746 mmHg 48%
10:00 +13°C° 0 mm 4 mps 745 mmHg 44%
11:00 +14°C° 0 mm 4 mps 745 mmHg 40%
12:00 +15°C° 0 mm 4 mps 745 mmHg 36%
13:00 +17°C° 0 mm 4 mps 744 mmHg 35%
14:00 +17°C° 0 mm 4 mps 744 mmHg 35%
15:00 +17°C° 0 mm 4 mps 744 mmHg 34%
16:00 +15°C° 0 mm 4 mps 743 mmHg 40%
17:00 +14°C° 0 mm 3 mps 743 mmHg 45%
18:00 +14°C° 0 mm 2 mps 743 mmHg 51%
19:00 +13°C° 0 mm 2 mps 743 mmHg 55%
20:00 +12°C° 0 mm 2 mps 742 mmHg 58%
21:00 +10°C° 0 mm 2 mps 742 mmHg 62%
22:00 +9°C° 0 mm 2 mps 742 mmHg 65%
23:00 +10°C° 0 mm 1 mps 742 mmHg 67%

15 April, Thursday

Time Temperature Precipitation Wind Pressure Humidity
00:00 +9°C° 0 mm 1 mps 742 mmHg 70%
01:00 +9°C° 0 mm 1 mps 741 mmHg 73%
02:00 +8°C° 0 mm 1 mps 741 mmHg 76%
03:00 +8°C° 0 mm 1 mps 741 mmHg 79%
04:00 +8°C° 0 mm 1 mps 741 mmHg 80%
05:00 +8°C° 0 mm 1 mps 741 mmHg 81%
06:00 +8°C° 0 mm 1 mps 741 mmHg 82%
07:00 +10°C° 0 mm 1 mps 741 mmHg 77%
08:00 +12°C° 0 mm 2 mps 740 mmHg 71%
09:00 +14°C° 0 mm 2 mps 740 mmHg 66%
10:00 +15°C° 0 mm 2 mps 740 mmHg 61%
11:00 +16°C° 0 mm 2 mps 740 mmHg 56%
12:00 +17°C° 0 mm 3 mps 739 mmHg 51%
13:00 +18°C° 0 mm 2 mps 739 mmHg 50%
14:00 +18°C° 0 mm 2 mps 739 mmHg 48%
15:00 +18°C° 0 mm 2 mps 738 mmHg 46%
16:00 +17°C° 0 mm 2 mps 738 mmHg 50%
17:00 +17°C° 0 mm 2 mps 738 mmHg 54%
18:00 +16°C° 0 mm 2 mps 738 mmHg 58%
19:00 +15°C° 0 mm 1 mps 737 mmHg 62%
20:00 +13°C° 0 mm 1 mps 737 mmHg 65%
21:00 +11°C° 0 mm 0 mps 737 mmHg 68%
22:00 +11°C° 0 mm 0 mps 737 mmHg 69%
23:00 +10°C° 0 mm 0 mps 737 mmHg 71%

16 April, Friday

Time Temperature Precipitation Wind Pressure Humidity
00:00 +10°C° 0 mm 0 mps 737 mmHg 72%
01:00 +9°C° 0 mm 0 mps 737 mmHg 74%
02:00 +10°C° 0 mm 1 mps 736 mmHg 75%
03:00 +10°C° 0 mm 1 mps 736 mmHg 77%
04:00 +10°C° 0 mm 1 mps 736 mmHg 77%
05:00 +10°C° 0 mm 1 mps 736 mmHg 76%
06:00 +10°C° 0 mm 1 mps 736 mmHg 76%
07:00 +12°C° 0 mm 1 mps 736 mmHg 69%
08:00 +13°C° 0 mm 2 mps 736 mmHg 62%
09:00 +15°C° 0 mm 2 mps 736 mmHg 55%
10:00 +16°C° 0 mm 2 mps 736 mmHg 51%
11:00 +17°C° 0 mm 3 mps 736 mmHg 47%
12:00 +18°C° 0 mm 3 mps 736 mmHg 43%
13:00 +17°C° 0.1 mm 4 mps 736 mmHg 47%
14:00 +16°C° 0.1 mm 6 mps 737 mmHg 51%
15:00 +15°C° 0.1 mm 7 mps 737 mmHg 55%
16:00 +11°C° 0 mm 7 mps 737 mmHg 62%
17:00 +9°C° 0 mm 8 mps 738 mmHg 68%
18:00 +5°C° 0 mm 8 mps 739 mmHg 75%
19:00 +4°C° 0 mm 8 mps 739 mmHg 71%
20:00 +4°C° 0 mm 7 mps 739 mmHg 68%
21:00 +3°C° 0 mm 7 mps 740 mmHg 64%
22:00 +3°C° 0 mm 7 mps 740 mmHg 62%
23:00 +2°C° 0 mm 7 mps 740 mmHg 60%
Show more